Language: 


Des rapports , des résumés tant et plus, au choix de chacun....


Données Historiques de Météogheer
Journalier Rapport pour Mars 27, 2017 Unitée:  Métrique    Impériale   Les deux
Suivant Jour »
Journalier Hebdomadaire Mensuel Annuel Sur mesure
  Max: Min: Moyenne:
Température: 20.9 °C 3.7 °C 11.9 °C
Point de rosée: 7.4 °C 0.2 °C 4.1 °C
Humidité: 94% 37% 63%
Vent: 17.2km/h 0.0km/h 4.6km/h
Rafales: 17.2km/h - -
Vent- - ESE
Pression: 1021.9 hPa 1018.2 hPa -
Pluie: 0.0 mm    
Historical Graphs
 
 
Données tabulaires pour Mars 27, 2017
Heure Température Point de rosée Pression Vent Vent Rafales Humidité Pluie Taux (Horaire) Conditions
00:03 7.7 °C 4.5 °C 1021.9 hPa NNE 5.5 km/h 9.3 km/h 80% 0.0 mm
00:08 7.7 °C 4.2 °C 1021.9 hPa NE 4.3 km/h 7.9 km/h 79% 0.0 mm
00:13 7.6 °C 4.3 °C 1021.9 hPa NNE 6.1 km/h 10.1 km/h 80% 0.0 mm
00:18 7.6 °C 4.5 °C 1021.9 hPa North 10.1 km/h 10.1 km/h 81% 0.0 mm
00:23 7.3 °C 4.3 °C 1021.9 hPa NNE 9.7 km/h 10.1 km/h 81% 0.0 mm
00:28 7.3 °C 4.3 °C 1021.9 hPa NNE 5.5 km/h 10.1 km/h 81% 0.0 mm
00:33 7.3 °C 4.3 °C 1021.9 hPa North 9.3 km/h 9.3 km/h 81% 0.0 mm
00:38 7.3 °C 4.3 °C 1021.9 hPa NNE 3.2 km/h 9.3 km/h 81% 0.0 mm
00:43 7.4 °C 4.4 °C 1021.9 hPa NNE 6.1 km/h 8.7 km/h 81% 0.0 mm
00:48 7.6 °C 4.7 °C 1021.9 hPa NE 6.9 km/h 9.3 km/h 82% 0.0 mm
00:53 7.6 °C 4.7 °C 1021.9 hPa NE 7.9 km/h 9.7 km/h 82% 0.0 mm
00:58 7.3 °C 4.5 °C 1021.9 hPa NNE 7.9 km/h 10.1 km/h 82% 0.0 mm
01:04 7.3 °C 4.5 °C 1021.9 hPa NNE 5.5 km/h 10.1 km/h 82% 0.0 mm
01:08 7.3 °C 4.3 °C 1021.9 hPa NNE 1.8 km/h 10.1 km/h 81% 0.0 mm
01:13 7.3 °C 4.2 °C 1021.9 hPa NNE 2.6 km/h 7.6 km/h 81% 0.0 mm
01:18 7.3 °C 4.2 °C 1021.9 hPa NNE 9.7 km/h 9.7 km/h 81% 0.0 mm
01:24 7.3 °C 4.2 °C 1021.9 hPa NNE 9.7 km/h 10.1 km/h 81% 0.0 mm
01:29 7.2 °C 4.3 °C 1021.9 hPa NNE 9.3 km/h 10.5 km/h 82% 0.0 mm
01:34 6.9 °C 4.1 °C 1021.9 hPa North 9.7 km/h 11.6 km/h 82% 0.0 mm
01:39 6.9 °C 4.1 °C 1020.9 hPa NNE 6.9 km/h 11.6 km/h 82% 0.0 mm
01:49 6.8 °C 4.1 °C 1020.9 hPa NNE 6.9 km/h 10.1 km/h 83% 0.0 mm
01:59 6.8 °C 4.0 °C 1020.9 hPa North 8.7 km/h 11.9 km/h 82% 0.0 mm
02:04 6.8 °C 4.0 °C 1020.9 hPa NE 9.3 km/h 10.1 km/h 82% 0.0 mm
02:09 6.8 °C 4.0 °C 1020.9 hPa North 6.9 km/h 10.5 km/h 82% 0.0 mm
02:14 6.8 °C 3.9 °C 1020.9 hPa North 6.9 km/h 10.5 km/h 82% 0.0 mm
02:19 6.7 °C 3.8 °C 1020.9 hPa NNE 5.5 km/h 10.1 km/h 82% 0.0 mm
02:24 6.7 °C 3.8 °C 1020.9 hPa NNE 7.6 km/h 9.7 km/h 82% 0.0 mm
02:29 6.7 °C 3.8 °C 1020.9 hPa NE 9.3 km/h 9.3 km/h 82% 0.0 mm
02:34 6.6 °C 3.7 °C 1020.9 hPa NNE 8.7 km/h 10.8 km/h 82% 0.0 mm
02:39 6.6 °C 3.9 °C 1020.9 hPa NE 8.7 km/h 10.8 km/h 83% 0.0 mm
02:44 6.4 °C 3.8 °C 1020.9 hPa North 6.1 km/h 10.8 km/h 83% 0.0 mm
02:49 6.4 °C 3.5 °C 1020.9 hPa North 5.5 km/h 10.5 km/h 82% 0.0 mm
02:54 6.3 °C 3.4 °C 1020.9 hPa Calm   6.9 km/h 82% 0.0 mm
02:59 6.3 °C 3.4 °C 1020.9 hPa Calm   5.5 km/h 82% 0.0 mm
03:04 6.2 °C 3.3 °C 1020.9 hPa Calm   4.7 km/h 82% 0.0 mm
03:09 6.2 °C 3.3 °C 1020.9 hPa Calm   6.1 km/h 82% 0.0 mm
03:14 6.2 °C 3.3 °C 1020.9 hPa NE 6.4 km/h 9.3 km/h 82% 0.0 mm
03:19 6.2 °C 3.5 °C 1020.9 hPa NNE 6.9 km/h 9.3 km/h 83% 0.0 mm
03:24 6.1 °C 3.2 °C 1020.9 hPa NNE 6.4 km/h 9.3 km/h 82% 0.0 mm
03:29 6.0 °C 3.3 °C 1020.9 hPa NNE 4.7 km/h 9.3 km/h 83% 0.0 mm
03:34 5.9 °C 3.2 °C 1020.9 hPa NNE 5.8 km/h 9.0 km/h 83% 0.0 mm
03:39 5.8 °C 3.1 °C 1020.9 hPa NNE 5.0 km/h 9.0 km/h 83% 0.0 mm
03:44 5.7 °C 3.0 °C 1020.9 hPa North 5.5 km/h 9.7 km/h 83% 0.0 mm
03:49 5.6 °C 3.1 °C 1020.9 hPa NNE 5.0 km/h 9.7 km/h 84% 0.0 mm
03:54 5.6 °C 3.1 °C 1019.9 hPa NNE 5.0 km/h 9.3 km/h 84% 0.0 mm
03:59 5.6 °C 3.1 °C 1019.9 hPa North 6.9 km/h 9.3 km/h 84% 0.0 mm
04:04 5.6 °C 3.1 °C 1019.9 hPa North 5.8 km/h 9.3 km/h 84% 0.0 mm
04:09 5.7 °C 3.3 °C 1020.9 hPa NNE 6.1 km/h 9.0 km/h 85% 0.0 mm
04:14 5.7 °C 3.3 °C 1020.9 hPa NNE 7.9 km/h 9.7 km/h 85% 0.0 mm
04:19 5.6 °C 3.3 °C 1020.9 hPa NNE 5.8 km/h 9.7 km/h 85% 0.0 mm
04:24 5.5 °C 3.2 °C 1020.9 hPa NNE 6.9 km/h 9.7 km/h 85% 0.0 mm
04:29 5.4 °C 3.1 °C 1020.9 hPa NNE 5.5 km/h 9.0 km/h 85% 0.0 mm
04:34 5.3 °C 3.0 °C 1020.9 hPa NNE 6.9 km/h 8.7 km/h 85% 0.0 mm
04:39 5.3 °C 3.0 °C 1021.9 hPa NE 6.1 km/h 7.6 km/h 85% 0.0 mm
04:44 5.2 °C 3.1 °C 1021.9 hPa NNE 5.5 km/h 7.6 km/h 86% 0.0 mm
04:49 5.2 °C 3.1 °C 1021.9 hPa NNE 6.9 km/h 7.9 km/h 86% 0.0 mm
04:54 5.2 °C 3.1 °C 1020.9 hPa NNE 5.8 km/h 9.0 km/h 86% 0.0 mm
05:00 5.2 °C 3.1 °C 1020.9 hPa North 4.3 km/h 9.3 km/h 86% 0.0 mm
05:05 5.2 °C 3.2 °C 1020.9 hPa NNE 5.8 km/h 9.3 km/h 87% 0.0 mm
05:10 5.2 °C 3.2 °C 1020.9 hPa North 6.9 km/h 10.5 km/h 87% 0.0 mm
05:15 5.2 °C 3.2 °C 1020.9 hPa North 6.4 km/h 10.5 km/h 87% 0.0 mm
05:20 5.1 °C 3.1 °C 1020.9 hPa NE 8.7 km/h 9.0 km/h 87% 0.0 mm
05:25 5.0 °C 3.0 °C 1020.9 hPa NNE 6.4 km/h 9.0 km/h 87% 0.0 mm
05:30 4.9 °C 2.9 °C 1020.9 hPa NNE 5.8 km/h 9.0 km/h 87% 0.0 mm
05:35 4.9 °C 2.9 °C 1020.9 hPa North 5.8 km/h 9.3 km/h 87% 0.0 mm
05:40 4.9 °C 2.9 °C 1020.9 hPa NE 7.6 km/h 9.7 km/h 87% 0.0 mm
05:45 4.9 °C 2.9 °C 1020.9 hPa NNE 6.1 km/h 10.5 km/h 87% 0.0 mm
05:50 5.0 °C 3.0 °C 1020.9 hPa North 5.8 km/h 10.5 km/h 87% 0.0 mm
05:55 5.0 °C 3.2 °C 1020.9 hPa North 9.7 km/h 9.7 km/h 88% 0.0 mm
06:00 4.9 °C 3.1 °C 1020.9 hPa NNE 6.4 km/h 9.7 km/h 88% 0.0 mm
06:05 4.8 °C 3.0 °C 1020.9 hPa NNE 5.0 km/h 10.1 km/h 88% 0.0 mm
06:10 4.7 °C 2.9 °C 1020.9 hPa NNE 5.0 km/h 10.1 km/h 88% 0.0 mm
06:15 4.6 °C 2.8 °C 1020.9 hPa NNE 6.1 km/h 9.0 km/h 88% 0.0 mm
06:20 4.7 °C 2.9 °C 1020.9 hPa NNE 4.7 km/h 9.3 km/h 88% 0.0 mm
06:25 4.7 °C 3.1 °C 1020.9 hPa NE 5.0 km/h 9.3 km/h 89% 0.0 mm
06:30 4.7 °C 3.1 °C 1020.9 hPa NNE 7.9 km/h 9.7 km/h 89% 0.0 mm
06:35 4.6 °C 2.9 °C 1020.9 hPa NNW 7.9 km/h 9.7 km/h 89% 0.0 mm
06:40 4.6 °C 2.9 °C 1020.9 hPa North 6.9 km/h 9.7 km/h 89% 0.0 mm
06:45 4.5 °C 2.8 °C 1020.9 hPa NNE 6.1 km/h 9.7 km/h 89% 0.0 mm
06:50 4.4 °C 2.8 °C 1020.9 hPa North 6.9 km/h 10.5 km/h 89% 0.0 mm
06:55 4.3 °C 2.7 °C 1020.9 hPa NNE 5.5 km/h 10.5 km/h 89% 0.0 mm
07:00 4.2 °C 2.6 °C 1020.9 hPa NNE 4.7 km/h 9.3 km/h 89% 0.0 mm
07:05 4.1 °C 2.4 °C 1020.9 hPa ENE 5.5 km/h 7.6 km/h 89% 0.0 mm
07:10 4.0 °C 2.4 °C 1020.9 hPa NNE 6.4 km/h 7.6 km/h 89% 0.0 mm
07:15 4.0 °C 2.5 °C 1020.9 hPa NNE 5.8 km/h 7.6 km/h 90% 0.0 mm
07:20 4.0 °C 2.5 °C 1020.9 hPa North 4.3 km/h 7.2 km/h 90% 0.0 mm
07:25 4.0 °C 2.7 °C 1020.9 hPa NNE 5.5 km/h 6.4 km/h 91% 0.0 mm
07:30 3.9 °C 2.6 °C 1020.9 hPa NE 6.1 km/h 6.9 km/h 91% 0.0 mm
07:35 3.9 °C 2.6 °C 1020.9 hPa NNE 6.9 km/h 8.7 km/h 91% 0.0 mm
07:40 3.8 °C 2.5 °C 1020.9 hPa NNE 6.9 km/h 8.7 km/h 91% 0.0 mm
07:45 3.8 °C 2.5 °C 1020.9 hPa NE 5.5 km/h 7.9 km/h 91% 0.0 mm
07:50 3.8 °C 2.7 °C 1020.9 hPa North 4.7 km/h 9.7 km/h 92% 0.0 mm
07:55 3.7 °C 2.6 °C 1020.9 hPa NNE 5.8 km/h 9.7 km/h 92% 0.0 mm
08:00 3.8 °C 2.7 °C 1020.9 hPa NNE 6.1 km/h 7.9 km/h 92% 0.0 mm
08:05 3.8 °C 2.7 °C 1020.9 hPa North 7.9 km/h 7.9 km/h 92% 0.0 mm
08:10 3.9 °C 2.7 °C 1019.9 hPa NNE 4.7 km/h 7.9 km/h 92% 0.0 mm
08:15 4.0 °C 2.8 °C 1019.9 hPa North 5.5 km/h 6.4 km/h 92% 0.0 mm
08:20 4.1 °C 3.1 °C 1019.9 hPa NNE 6.4 km/h 8.7 km/h 93% 0.0 mm
08:25 4.2 °C 3.2 °C 1020.9 hPa NNE 6.9 km/h 9.0 km/h 93% 0.0 mm
08:30 4.4 °C 3.4 °C 1020.9 hPa NNE 5.8 km/h 9.0 km/h 93% 0.0 mm
08:36 4.6 °C 3.6 °C 1020.9 hPa NE 6.9 km/h 7.9 km/h 93% 0.0 mm
08:41 4.8 °C 3.8 °C 1020.9 hPa NNE 5.8 km/h 7.9 km/h 93% 0.0 mm
08:45 5.0 °C 3.9 °C 1020.9 hPa North 5.0 km/h 7.9 km/h 93% 0.0 mm
08:51 5.3 °C 4.3 °C 1020.9 hPa North 4.7 km/h 6.9 km/h 93% 0.0 mm
08:56 5.7 °C 4.7 °C 1020.9 hPa Calm   5.8 km/h 93% 0.0 mm
09:01 6.3 °C 5.4 °C 1020.9 hPa NE 6.4 km/h 6.9 km/h 94% 0.0 mm
09:06 6.8 °C 5.9 °C 1020.9 hPa ENE 5.8 km/h 7.6 km/h 94% 0.0 mm
09:11 7.2 °C 5.9 °C 1020.9 hPa East 6.1 km/h 9.0 km/h 92% 0.0 mm
09:16 7.4 °C 6.2 °C 1020.9 hPa ENE 5.8 km/h 9.0 km/h 92% 0.0 mm
09:21 7.7 °C 6.4 °C 1020.9 hPa ENE 4.7 km/h 9.0 km/h 91% 0.0 mm
09:26 8.2 °C 6.7 °C 1020.9 hPa East 4.0 km/h 9.0 km/h 90% 0.0 mm
09:31 8.6 °C 6.9 °C 1020.9 hPa ENE 4.0 km/h 6.9 km/h 89% 0.0 mm
09:36 8.9 °C 7.1 °C 1020.9 hPa ENE 3.2 km/h 5.5 km/h 88% 0.0 mm
09:41 9.1 °C 6.9 °C 1020.9 hPa NE 4.3 km/h 5.5 km/h 86% 0.0 mm
09:46 9.5 °C 7.1 °C 1020.9 hPa NE 5.0 km/h 6.1 km/h 85% 0.0 mm
09:51 9.8 °C 7.2 °C 1020.9 hPa NE 5.8 km/h 6.1 km/h 84% 0.0 mm
09:56 10.1 °C 7.3 °C 1020.9 hPa East 5.5 km/h 6.1 km/h 83% 0.0 mm
10:01 10.6 °C 7.4 °C 1020.9 hPa East 6.1 km/h 6.9 km/h 81% 0.0 mm
10:06 11.0 °C 7.3 °C 1020.9 hPa East 4.3 km/h 6.9 km/h 78% 0.0 mm
10:11 11.3 °C 7.4 °C 1020.9 hPa East 12.6 km/h 12.6 km/h 77% 0.0 mm
10:16 11.4 °C 6.9 °C 1020.9 hPa ESE 6.9 km/h 12.6 km/h 74% 0.0 mm
10:21 11.7 °C 7.0 °C 1020.9 hPa East 5.0 km/h 12.6 km/h 73% 0.0 mm
10:26 12.1 °C 7.2 °C 1020.9 hPa ESE 9.0 km/h 9.3 km/h 72% 0.0 mm
10:31 12.3 °C 7.1 °C 1020.9 hPa East 9.0 km/h 9.7 km/h 70% 0.0 mm
10:36 12.7 °C 6.7 °C 1020.9 hPa ESE 7.6 km/h 10.1 km/h 67% 0.0 mm
10:41 13.1 °C 7.1 °C 1020.9 hPa ESE 10.5 km/h 11.9 km/h 67% 0.0 mm
10:46 13.3 °C 6.4 °C 1020.9 hPa ENE 9.7 km/h 12.2 km/h 63% 0.0 mm
10:51 13.6 °C 6.2 °C 1020.9 hPa East 8.7 km/h 13.0 km/h 61% 0.0 mm
10:56 13.8 °C 5.9 °C 1020.9 hPa East 9.7 km/h 13.0 km/h 59% 0.0 mm
11:01 14.2 °C 6.6 °C 1020.9 hPa SSE 6.1 km/h 10.5 km/h 60% 0.0 mm
11:06 14.5 °C 6.3 °C 1020.9 hPa SE 7.6 km/h 12.6 km/h 58% 0.0 mm
11:11 14.8 °C 6.1 °C 1020.9 hPa ESE 13.0 km/h 13.0 km/h 56% 0.0 mm
11:16 15.0 °C 5.5 °C 1020.9 hPa Calm   13.0 km/h 53% 0.0 mm
11:21 15.3 °C 5.8 °C 1020.9 hPa East 6.9 km/h 12.6 km/h 53% 0.0 mm
11:26 15.6 °C 6.1 °C 1020.9 hPa SSE 9.0 km/h 10.5 km/h 53% 0.0 mm
11:31 15.9 °C 5.7 °C 1020.9 hPa ESE 5.0 km/h 10.5 km/h 51% 0.0 mm
11:36 16.3 °C 6.1 °C 1020.9 hPa Calm   9.7 km/h 51% 0.0 mm
11:41 16.4 °C 6.0 °C 1020.9 hPa Calm   9.0 km/h 50% 0.0 mm
11:46 16.8 °C 6.3 °C 1020.9 hPa South 1.4 km/h 9.0 km/h 50% 0.0 mm
11:51 17.2 °C 6.3 °C 1020.9 hPa Calm   6.9 km/h 49% 0.0 mm
11:56 17.6 °C 6.7 °C 1020.9 hPa SSW 2.1 km/h 6.9 km/h 49% 0.0 mm
12:01 17.6 °C 6.4 °C 1020.9 hPa Calm   6.9 km/h 48% 0.0 mm
12:06 17.9 °C 6.8 °C 1020.9 hPa South 4.3 km/h 5.8 km/h 48% 0.0 mm
12:11 18.2 °C 6.7 °C 1020.9 hPa Calm   4.3 km/h 47% 0.0 mm
12:16 18.3 °C 6.5 °C 1020.9 hPa Calm   3.2 km/h 46% 0.0 mm
12:21 18.6 °C 6.4 °C 1020.9 hPa Calm   1.8 km/h 45% 0.0 mm
12:26 18.8 °C 6.6 °C 1019.9 hPa Calm     45% 0.0 mm
12:31 18.8 °C 6.6 °C 1019.9 hPa Calm     45% 0.0 mm
12:36 18.7 °C 6.6 °C 1019.9 hPa Calm   5.0 km/h 45% 0.0 mm
12:41 18.6 °C 6.1 °C 1019.9 hPa Calm   6.9 km/h 44% 0.0 mm
12:42 18.7 °C 6.2 °C 1019.9 hPa ENE 6.1 km/h 6.9 km/h 44% 0.0 mm
12:47 18.6 °C 6.1 °C 1019.9 hPa Calm   8.7 km/h 44% 0.0 mm
12:52 18.8 °C 5.9 °C 1020.9 hPa Calm   8.7 km/h 43% 0.0 mm
12:57 19.1 °C 6.6 °C 1020.9 hPa Calm   7.2 km/h 44% 0.0 mm
13:02 19.1 °C 6.6 °C 1020.9 hPa Calm   6.9 km/h 44% 0.0 mm
13:07 19.0 °C 6.5 °C 1020.9 hPa ENE 9.0 km/h 9.7 km/h 44% 0.0 mm
13:12 18.7 °C 5.9 °C 1020.9 hPa Calm   14.0 km/h 43% 0.0 mm
13:17 18.8 °C 5.9 °C 1020.9 hPa ENE 2.6 km/h 14.0 km/h 43% 0.0 mm
13:22 18.8 °C 5.9 °C 1020.9 hPa Calm   13.0 km/h 43% 0.0 mm
13:23 18.9 °C 6.1 °C 1020.9 hPa Calm   13.0 km/h 43% 0.0 mm
13:28 18.9 °C 6.1 °C 1020.9 hPa ENE 9.3 km/h 13.0 km/h 43% 0.0 mm
13:33 19.1 °C 5.9 °C 1020.9 hPa ESE 9.3 km/h 11.1 km/h 42% 0.0 mm
13:38 19.3 °C 6.4 °C 1020.9 hPa Calm   10.1 km/h 43% 0.0 mm
13:43 19.3 °C 6.1 °C 1020.9 hPa East 1.4 km/h 10.1 km/h 42% 0.0 mm
13:48 19.4 °C 6.2 °C 1020.9 hPa SSE 12.2 km/h 13.0 km/h 42% 0.0 mm
13:53 19.3 °C 5.7 °C 1020.9 hPa ESE 16.9 km/h 16.9 km/h 41% 0.0 mm
13:58 19.3 °C 5.3 °C 1020.9 hPa SE 13.0 km/h 16.9 km/h 40% 0.0 mm
14:03 19.4 °C 5.4 °C 1020.9 hPa ENE 10.1 km/h 15.8 km/h 40% 0.0 mm
14:08 19.6 °C 5.6 °C 1020.9 hPa ENE 5.8 km/h 15.8 km/h 40% 0.0 mm
14:14 19.4 °C 5.4 °C 1020.9 hPa SE 4.7 km/h 16.3 km/h 40% 0.0 mm
14:19 19.4 °C 5.4 °C 1020.9 hPa SE 11.6 km/h 16.3 km/h 40% 0.0 mm
14:24 19.8 °C 5.4 °C 1019.9 hPa ESE 7.9 km/h 15.1 km/h 39% 0.0 mm
14:29 19.9 °C 5.5 °C 1019.9 hPa ESE 11.1 km/h 13.7 km/h 39% 0.0 mm
14:34 20.1 °C 5.7 °C 1019.9 hPa Calm   12.6 km/h 39% 0.0 mm
14:39 20.3 °C 5.9 °C 1019.9 hPa SE 5.8 km/h 16.6 km/h 39% 0.0 mm
14:44 20.4 °C 5.6 °C 1019.9 hPa South 5.8 km/h 16.6 km/h 38% 0.0 mm
14:49 20.3 °C 5.9 °C 1019.9 hPa ESE 9.7 km/h 11.9 km/h 39% 0.0 mm
14:54 20.4 °C 5.9 °C 1019.9 hPa ESE 3.5 km/h 10.5 km/h 39% 0.0 mm
14:59 20.3 °C 5.9 °C 1019.9 hPa ENE 4.3 km/h 10.5 km/h 39% 0.0 mm
15:04 20.4 °C 5.9 °C 1019.9 hPa ENE 9.7 km/h 13.0 km/h 39% 0.0 mm
15:09 20.1 °C 5.7 °C 1018.8 hPa ENE 10.5 km/h 14.0 km/h 39% 0.0 mm
15:14 20.0 °C 5.6 °C 1018.8 hPa Calm   14.0 km/h 39% 0.0 mm
15:19 19.9 °C 5.5 °C 1018.8 hPa ESE 10.8 km/h 14.0 km/h 39% 0.0 mm
15:24 20.1 °C 5.7 °C 1018.8 hPa East 6.4 km/h 14.0 km/h 39% 0.0 mm
15:29 20.0 °C 5.6 °C 1018.8 hPa East 10.5 km/h 13.7 km/h 39% 0.0 mm
15:34 20.1 °C 5.7 °C 1018.8 hPa ESE 1.8 km/h 13.7 km/h 39% 0.0 mm
15:39 20.2 °C 5.8 °C 1018.8 hPa SE 9.0 km/h 12.2 km/h 39% 0.0 mm
15:44 20.3 °C 5.5 °C 1018.8 hPa SSE 5.5 km/h 11.9 km/h 38% 0.0 mm
15:49 20.2 °C 5.4 °C 1018.8 hPa ESE 10.8 km/h 12.2 km/h 38% 0.0 mm
15:54 20.1 °C 5.3 °C 1018.8 hPa ESE 9.3 km/h 15.8 km/h 38% 0.0 mm
15:59 20.5 °C 5.7 °C 1018.8 hPa Calm   15.8 km/h 38% 0.0 mm
16:04 20.6 °C 5.8 °C 1018.8 hPa SSE 12.2 km/h 12.2 km/h 38% 0.0 mm
16:09 20.0 °C 5.2 °C 1018.2 hPa SE 13.0 km/h 16.9 km/h 38% 0.0 mm
16:14 20.2 °C 5.8 °C 1018.2 hPa SSE 6.1 km/h 16.9 km/h 39% 0.0 mm
16:24 20.7 °C 6.2 °C 1018.8 hPa South 12.2 km/h 12.2 km/h 39% 0.0 mm
16:29 20.8 °C 5.9 °C 1018.8 hPa SSE 5.0 km/h 12.2 km/h 38% 0.0 mm
16:34 20.9 °C 6.0 °C 1018.8 hPa SSW 5.5 km/h 12.2 km/h 38% 0.0 mm
16:39 20.9 °C 6.0 °C 1019.9 hPa Calm   10.1 km/h 38% 0.0 mm
16:44 20.7 °C 5.8 °C 1019.9 hPa Calm   10.5 km/h 38% 0.0 mm
16:49 20.6 °C 5.4 °C 1019.9 hPa SE 17.2 km/h 17.2 km/h 37% 0.0 mm
16:54 20.5 °C 5.7 °C 1018.8 hPa Calm   17.2 km/h 38% 0.0 mm
16:59 20.4 °C 5.6 °C 1018.8 hPa South 9.3 km/h 17.2 km/h 38% 0.0 mm
17:04 20.4 °C 5.2 °C 1018.8 hPa South 9.7 km/h 12.6 km/h 37% 0.0 mm
17:09 20.5 °C 5.7 °C 1018.8 hPa SSE 8.7 km/h 12.6 km/h 38% 0.0 mm
17:14 20.4 °C 5.2 °C 1018.8 hPa South 8.7 km/h 14.0 km/h 37% 0.0 mm
17:19 20.3 °C 5.1 °C 1018.8 hPa SSW 6.4 km/h 15.1 km/h 37% 0.0 mm
17:24 20.2 °C 5.0 °C 1018.8 hPa Calm   15.1 km/h 37% 0.0 mm
17:29 20.2 °C 5.0 °C 1018.8 hPa ESE 6.9 km/h 12.6 km/h 37% 0.0 mm
17:34 20.1 °C 4.9 °C 1018.8 hPa South 9.0 km/h 12.6 km/h 37% 0.0 mm
17:39 19.9 °C 4.8 °C 1018.8 hPa South 10.8 km/h 13.7 km/h 37% 0.0 mm
17:44 19.9 °C 4.8 °C 1018.8 hPa South 6.1 km/h 13.7 km/h 37% 0.0 mm
17:45 19.9 °C 4.8 °C 1018.8 hPa SSE 3.2 km/h 13.7 km/h 37% 0.0 mm
17:50 20.1 °C 4.9 °C 1018.8 hPa SSE 9.3 km/h 11.9 km/h 37% 0.0 mm
17:55 20.0 °C 4.8 °C 1018.8 hPa South 4.3 km/h 11.9 km/h 37% 0.0 mm
18:00 20.0 °C 4.8 °C 1018.8 hPa Calm   8.7 km/h 37% 0.0 mm
18:05 19.9 °C 4.8 °C 1018.8 hPa SSE 8.7 km/h 9.3 km/h 37% 0.0 mm
18:10 19.8 °C 4.7 °C 1018.8 hPa SSW 6.4 km/h 10.1 km/h 37% 0.0 mm
18:15 19.8 °C 4.7 °C 1018.8 hPa Calm   10.1 km/h 37% 0.0 mm
18:20 19.7 °C 4.6 °C 1018.8 hPa Calm   6.9 km/h 37% 0.0 mm
18:25 19.7 °C 4.9 °C 1018.8 hPa SSE 5.0 km/h 8.7 km/h 38% 0.0 mm
18:26 19.7 °C 4.9 °C 1018.8 hPa SSW 6.4 km/h 8.7 km/h 38% 0.0 mm
18:31 19.5 °C 4.8 °C 1018.8 hPa SSE 6.9 km/h 10.5 km/h 38% 0.0 mm
18:36 19.3 °C 4.6 °C 1018.8 hPa SSE 4.3 km/h 10.5 km/h 38% 0.0 mm
18:41 19.2 °C 4.6 °C 1018.8 hPa SE 6.9 km/h 9.3 km/h 38% 0.0 mm
18:46 19.0 °C 4.3 °C 1018.8 hPa Calm   9.3 km/h 38% 0.0 mm
18:51 18.8 °C 4.2 °C 1018.8 hPa SE 6.9 km/h 8.7 km/h 38% 0.0 mm
18:56 18.6 °C 4.0 °C 1018.8 hPa Calm   8.7 km/h 38% 0.0 mm
19:01 18.4 °C 4.2 °C 1018.8 hPa Calm   6.4 km/h 39% 0.0 mm
19:06 18.2 °C 4.1 °C 1018.8 hPa Calm   6.4 km/h 39% 0.0 mm
19:08 18.2 °C 4.1 °C 1018.8 hPa SSE 5.0 km/h 6.4 km/h 39% 0.0 mm
19:13 18.1 °C 3.8 °C 1018.8 hPa SSE 6.9 km/h 6.9 km/h 39% 0.0 mm
19:18 17.8 °C 3.7 °C 1018.8 hPa Calm   6.9 km/h 39% 0.0 mm
19:23 17.7 °C 3.5 °C 1018.8 hPa Calm   6.9 km/h 39% 0.0 mm
19:28 17.3 °C 3.2 °C 1018.8 hPa Calm   5.0 km/h 39% 0.0 mm
19:33 17.2 °C 3.1 °C 1018.8 hPa SSE 4.7 km/h 5.0 km/h 39% 0.0 mm
19:38 16.8 °C 2.7 °C 1018.8 hPa Calm   6.4 km/h 39% 0.0 mm
19:43 16.4 °C 2.8 °C 1018.8 hPa Calm   6.4 km/h 40% 0.0 mm
19:48 16.3 °C 2.6 °C 1018.8 hPa Calm   1.8 km/h 40% 0.0 mm
19:53 16.0 °C 2.4 °C 1018.8 hPa Calm   1.8 km/h 40% 0.0 mm
19:58 15.6 °C 2.0 °C 1018.8 hPa Calm     40% 0.0 mm
20:03 15.3 °C 2.1 °C 1018.8 hPa Calm     41% 0.0 mm
20:08 14.7 °C 1.6 °C 1018.8 hPa Calm     41% 0.0 mm
20:13 14.2 °C 1.1 °C 1018.8 hPa Calm     41% 0.0 mm
20:18 13.8 °C 1.1 °C 1018.8 hPa Calm     42% 0.0 mm
20:23 13.4 °C 0.8 °C 1018.8 hPa Calm   1.4 km/h 42% 0.0 mm
20:28 13.1 °C 0.7 °C 1018.8 hPa Calm   1.4 km/h 43% 0.0 mm
20:33 12.9 °C 0.7 °C 1018.8 hPa Calm   1.8 km/h 43% 0.0 mm
20:38 12.7 °C 0.7 °C 1018.8 hPa Calm   1.8 km/h 44% 0.0 mm
20:43 12.3 °C 0.7 °C 1018.8 hPa Calm     45% 0.0 mm
20:48 12.2 °C 0.6 °C 1018.8 hPa Calm   1.4 km/h 45% 0.0 mm
20:53 11.8 °C 0.6 °C 1018.8 hPa Calm   1.4 km/h 46% 0.0 mm
20:58 11.4 °C 0.6 °C 1018.8 hPa Calm     47% 0.0 mm
21:03 11.2 °C 0.3 °C 1018.8 hPa Calm     47% 0.0 mm
21:08 10.8 °C 0.2 °C 1018.8 hPa Calm     48% 0.0 mm
21:13 10.6 °C 0.3 °C 1018.8 hPa Calm     49% 0.0 mm
21:18 10.5 °C 0.5 °C 1018.8 hPa Calm     50% 0.0 mm
21:23 10.4 °C 0.7 °C 1018.8 hPa Calm     51% 0.0 mm
21:28 10.1 °C 0.9 °C 1018.8 hPa Calm     53% 0.0 mm
21:29 10.1 °C 0.9 °C 1018.8 hPa Calm     53% 0.0 mm
21:33 10.0 °C 1.1 °C 1018.8 hPa Calm     54% 0.0 mm
21:35 10.0 °C 1.1 °C 1018.8 hPa Calm     54% 0.0 mm
21:36 10.0 °C 1.1 °C 1018.8 hPa Calm     54% 0.0 mm
21:38 10.0 °C 1.3 °C 1018.8 hPa Calm     55% 0.0 mm
21:40 10.0 °C 1.3 °C 1018.8 hPa Calm     55% 0.0 mm
21:45 9.9 °C 1.5 °C 1018.8 hPa Calm     56% 0.0 mm
21:49 9.9 °C 1.8 °C 1018.8 hPa Calm     57% 0.0 mm
21:51 9.9 °C 1.8 °C 1018.8 hPa Calm     57% 0.0 mm
21:53 9.8 °C 1.7 °C 1018.8 hPa Calm     57% 0.0 mm
21:56 9.8 °C 1.7 °C 1018.8 hPa Calm     57% 0.0 mm
21:59 9.6 °C 1.7 °C 1018.8 hPa Calm     58% 0.0 mm
22:04 9.5 °C 1.7 °C 1018.8 hPa Calm     58% 0.0 mm
22:09 9.4 °C 1.8 °C 1018.8 hPa Calm     59% 0.0 mm
22:14 9.5 °C 1.9 °C 1018.8 hPa Calm     59% 0.0 mm
22:19 9.6 °C 2.0 °C 1018.8 hPa Calm     59% 0.0 mm
22:24 9.6 °C 2.2 °C 1018.8 hPa North 1.8 km/h 1.8 km/h 60% 0.0 mm
22:29 9.6 °C 2.2 °C 1018.8 hPa North 4.7 km/h 5.0 km/h 60% 0.0 mm
22:34 9.5 °C 2.1 °C 1018.8 hPa Calm   5.0 km/h 60% 0.0 mm
22:39 9.5 °C 2.1 °C 1019.9 hPa Calm   5.0 km/h 60% 0.0 mm
22:44 9.4 °C 2.0 °C 1019.9 hPa NNE 6.1 km/h 6.1 km/h 60% 0.0 mm
22:49 9.3 °C 2.4 °C 1019.9 hPa Calm   6.1 km/h 62% 0.0 mm
22:54 9.2 °C 2.5 °C 1019.9 hPa NE 4.3 km/h 6.9 km/h 63% 0.0 mm
22:59 9.1 °C 2.7 °C 1019.9 hPa Calm   6.9 km/h 64% 0.0 mm
23:04 9.1 °C 2.7 °C 1019.9 hPa Calm   5.5 km/h 64% 0.0 mm
23:09 9.0 °C 2.8 °C 1019.9 hPa Calm   5.0 km/h 65% 0.0 mm
23:14 8.8 °C 2.6 °C 1019.9 hPa Calm   5.0 km/h 65% 0.0 mm
23:19 8.6 °C 2.4 °C 1019.9 hPa Calm   4.0 km/h 65% 0.0 mm
23:24 8.5 °C 2.6 °C 1018.8 hPa Calm     66% 0.0 mm
23:29 8.3 °C 2.3 °C 1018.8 hPa NNE 2.6 km/h 2.6 km/h 66% 0.0 mm
23:34 8.2 °C 2.3 °C 1018.8 hPa Calm   2.6 km/h 66% 0.0 mm
23:39 8.1 °C 2.4 °C 1018.8 hPa Calm   4.3 km/h 67% 0.0 mm
23:44 8.1 °C 2.3 °C 1018.8 hPa Calm   4.3 km/h 67% 0.0 mm
23:49 7.8 °C 2.3 °C 1018.8 hPa Calm   2.1 km/h 68% 0.0 mm
23:54 7.8 °C 2.3 °C 1019.9 hPa Calm     68% 0.0 mm
23:59 7.7 °C 2.4 °C 1019.9 hPa Calm     69% 0.0 mm
Données Historique de Météo Turbie

Mise a jour : 23/06/2018 17:51:13
Généré par Cumulus 1.9.4 (1099)